{"data":{"norad_id":59327,"intl_designator":"2024-057H","name":"STARLINK-31599","alt_names":[],"object_type":"PAYLOAD","status":"ACTIVE","operator":null,"country":"US","launch_date":"2024-03-25","launch_site_code":"AFETR","launch_vehicle":null,"mission":null,"orbit_class":"UNKNOWN","rcs_meters":null,"size_class":null,"mass_kg":null,"dimensions":null,"purposes":["comms"],"wikipedia_slug":null,"has_3d_model":false,"image_url":null,"decayed_at":null,"tle_current":{"epoch":"2026-05-25T04:55:15.581280Z","epoch_age_seconds":50714,"freshness":"FRESH","line1":"1 59327U 24057H   26145.20504145 -.00001762  00000+0 -54526-4 0  9996","line2":"2 59327  42.9997 114.7386 0001221 256.8343 103.2372 15.27584024121544","mean_motion":15.27584024,"eccentricity":0.0001221,"inclination_deg":42.9997,"raan_deg":114.7386,"arg_perigee_deg":256.8343,"mean_anomaly_deg":103.2372,"bstar":-5.4526e-5,"rev_number":12154,"period_min":94.266500393827,"perigee_km":482.19929741137,"apogee_km":483.87479611359,"semimajor_km":6861.1740467625,"source":"CELESTRAK","updated_at":"2026-05-25T13:38:18.904079Z"}}}